Location: Unspecified
(49.2170°N, 0.0000°E)
Time: 11:16:27
(UTC+00:00)

A-11 Canister half - Pass Details

Date: 25 June 2019
Orbit: 1526 x 1683 km, 47.3° (Epoch: 22 July)

Event Time Altitude Azimuth Distance (km) Brightness Sun altitude
Rises 12:03:01 0° 282° (WNW) 4,680 11.5 64.2°
Reaches altitude 10° 12:10:04 10° 246° (WSW) 3,704 11.3 64.1°
Maximum altitude 12:11:22 10° 238° (WSW) 3,678 11.4 64.1°
Drops below altitude 10° 12:12:41 10° 229° (SW) 3,710 11.4 64.1°
Sets 12:19:50 0° 193° (SSW) 4,721 11.9 63.9°
